Home   Weather   Guayaquil   Past weeks
Flag for Ecuador

Past Weather in Guayaquil, Ecuador — Yesterday and Last 2 Weeks

Now
79 °F

Broken clouds.


Feels Like: 81 °F
Forecast: 85 / 71 °F
Wind: 7 mph from Southwest

Location: Guayaquil / Simon Bolivar

Current Time: Jun 26, 2019 at 11:20:20 am

Latest Report: Jun 26, 2019 at 10:00 am


Visibility: N/A

Pressure: 29.86 "Hg

Humidity: 74%

Dew Point: 70 °F

Location of GuayaquilLocation

Past Weather in Guayaquil — Graph

°F

Guayaquil Temperature Yesterday

Maximum temperature yesterday: 82 °F (at 10:00 am)
Minimum temperature yesterday: 72 °F (at 3:00 am)
Average temperature yesterday: 77 °F

High & Low Weather Summary for the Past Weeks

 TemperatureHumidityPressure
High88 °F (Jun 15, 2:00 pm)94% (Jun 16, 5:00 am)29.95 "Hg (Jun 16, 5:00 am)
Low72 °F (Jun 23, 2:00 am)59% (Jun 15, 2:00 pm)29.68 "Hg (Jun 16, 4:00 pm)
Average78 °F78%29.85 "Hg
* Reported Jun 11 10:00 am — Jun 26 10:00 am, Guayaquil. Weather by CustomWeather, © 2019

Note: Actual official high and low records may vary slightly from our data, if they occured in-between our weather recording intervals... More about our weather records

Advertising

Guayaquil Weather History for the Previous 24 Hours

Scroll right to see more
 ConditionsComfort  
Time TempWeatherWind HumidityBarometerVisibility
10:00 am
Wed, Jun 26
79 °FBroken clouds.7 mph74%29.86 "HgN/A
9:00 am77 °FPartly sunny.3 mph79%29.86 "HgN/A
8:00 am75 °FMostly cloudy.3 mph78%29.86 "HgN/A
7:00 am73 °FMostly cloudy.3 mph83%29.86 "HgN/A
5:00 am73 °FPartly cloudy.6 mph83%29.83 "HgN/A
4:00 am72 °FPassing clouds.7 mph88%29.80 "HgN/A
3:00 am72 °FClear.15 mph88%29.80 "Hg10 mi
2:00 am72 °FClear.9 mph88%29.83 "Hg10 mi
1:00 am73 °FClear.8 mph83%29.83 "Hg10 mi
12:00 am73 °FClear.9 mph83%29.83 "Hg10 mi
11:00 pm
Tue, Jun 25
73 °FClear.7 mph83%29.86 "Hg10 mi
10:00 pm75 °FClear.10 mph78%29.86 "Hg10 mi
9:00 pm77 °FClear.10 mph79%29.86 "Hg10 mi
8:00 pm79 °FPassing clouds.9 mph79%29.83 "HgN/A
7:00 pm79 °FPassing clouds.5 mph79%29.80 "HgN/A
6:00 pm81 °FPartly sunny.5 mph74%29.80 "HgN/A
5:00 pm81 °FPartly sunny.6 mph74%29.80 "HgN/A
4:00 pm81 °FMostly cloudy.3 mph70%29.80 "HgN/A
3:00 pm81 °FMostly cloudy.3 mph70%29.83 "HgN/A
2:00 pm81 °FMostly cloudy.5 mph74%29.86 "HgN/A
1:00 pm79 °FBroken clouds.6 mph79%29.89 "HgN/A
12:00 pm81 °FBroken clouds.5 mph70%29.89 "HgN/A
11:00 am82 °FPartly sunny.3 mph66%29.92 "HgN/A
Weather by CustomWeather, © 2019

See weather overview